User: anonymous
Location: Unspecified
(0.0000°N, 0.0000°E)
Time: 23:40:28
(UTC+00:00)
Language:

Alouette 1 - Orbit

View from above orbital plane
View from above orbital plane
View from above satellite
View from above satellite

Ground track
Ground track

The orbit data is extracted from the following two-line orbital elements,

1 00424U 62049A   14211.71936440  .00000066  00000-0  66450-4 0  4828
2 00424 080.4646 227.6106 0021896 268.1446 141.1860 13.68950643587467
Epoch (UTC): 30 July 2014 17:15:53
Eccentricity: 0.0021896
inclination: 80.4646°
perigee height: 987 km
apogee height: 1019 km
right ascension of ascending node: 227.6106°
argument of perigee: 268.1446°
revolutions per day: 13.68950643
mean anomaly at epoch: 141.1860°
orbit number at epoch: 58746

The dashed part of the orbit path shows where the satellite is in the earth's shadow,  

DLR